Location: Unnamed
(47.6264°N, 122.3366°W)
Time: 21:07:41
(UTC-07:00)

UPPER FREE FLYER - Visible Passes

Search period start: 18 June 2024 00:00
Search period end: 28 June 2024 00:00
Orbit: 549 x 570 km, 97.5° (Epoch: 18 June)

Date Brightness Start Highest point End Pass type
(mag) Time Alt. Az. Time Alt. Az. Time Alt. Az.
18 Jun ? 23:18:02 10° WSW 23:19:49 13° W 23:21:37 10° WNW visible
19 Jun ? 23:16:32 10° WSW 23:18:27 13° W 23:20:21 10° WNW visible
20 Jun ? 23:15:04 10° WSW 23:17:04 13° W 23:19:07 10° WNW visible
21 Jun ? 23:13:35 10° WSW 23:15:42 14° W 23:17:50 10° WNW visible
22 Jun ? 23:12:06 10° WSW 23:14:19 14° W 23:16:34 10° NW visible
23 Jun ? 23:10:37 10° SW 23:12:56 15° W 23:15:16 10° NW visible
24 Jun ? 23:09:08 10° SW 23:11:33 15° W 23:13:57 10° NW visible
25 Jun ? 23:07:39 10° SW 23:10:08 16° W 23:12:38 10° NW visible
26 Jun ? 23:06:10 10° SW 23:08:44 16° W 23:11:19 10° NW visible
27 Jun ? 23:04:40 10° SW 23:07:19 17° W 23:09:58 10° NW visible
